{"data":{"norad_id":66474,"epoch":"2026-05-25T05:27:22.932864Z","epoch_age_seconds":55506,"freshness":"FRESH","line1":"1 66474U 25262U   26145.22734876  .00011105  00000+0  41230-3 0  9991","line2":"2 66474  42.9984 223.7666 0001113 273.7024  86.3701 15.27591146 30614","mean_motion":15.27591146,"eccentricity":0.0001113,"inclination_deg":42.9984,"raan_deg":223.7666,"arg_perigee_deg":273.7024,"mean_anomaly_deg":86.3701,"bstar":0.0004123,"rev_number":3061,"period_min":94.266060900565,"perigee_km":482.25207481097,"apogee_km":483.77936740669,"semimajor_km":6861.1527211088,"source":"CELESTRAK","updated_at":"2026-05-25T13:38:21.238964Z"}}